Year,Month,Day,Hour,Minute,Value (Times are PST for insolation in W/m^2)
2018,09,10,00,00,0.00
2018,09,10,00,01,0.00
2018,09,10,00,02,0.00
2018,09,10,00,03,0.00
2018,09,10,00,04,0.00
2018,09,10,00,05,0.00
2018,09,10,00,06,0.00
2018,09,10,00,07,0.00
2018,09,10,00,08,0.00
2018,09,10,00,09,0.00
2018,09,10,00,10,0.00
2018,09,10,00,11,0.00
2018,09,10,00,12,0.00
2018,09,10,00,13,0.00
2018,09,10,00,14,0.00
2018,09,10,00,15,0.00
2018,09,10,00,16,0.00
2018,09,10,00,17,0.00
2018,09,10,00,18,0.00
2018,09,10,00,19,0.00
2018,09,10,00,20,0.00
2018,09,10,00,21,0.00
2018,09,10,00,22,0.00
2018,09,10,00,23,0.00
2018,09,10,00,24,0.00
2018,09,10,00,25,0.00
2018,09,10,00,26,0.00
2018,09,10,00,27,0.00
2018,09,10,00,28,0.00
2018,09,10,00,29,0.00
2018,09,10,00,30,0.00
2018,09,10,00,31,0.00
2018,09,10,00,32,0.00
2018,09,10,00,33,0.00
2018,09,10,00,34,0.00
2018,09,10,00,35,0.00
2018,09,10,00,36,0.00
2018,09,10,00,37,0.00
2018,09,10,00,38,0.00
2018,09,10,00,39,0.00
2018,09,10,00,40,0.00
2018,09,10,00,41,0.00
2018,09,10,00,42,0.00
2018,09,10,00,43,0.00
2018,09,10,00,44,0.00
2018,09,10,00,45,0.00
2018,09,10,00,46,0.00
2018,09,10,00,47,0.00
2018,09,10,00,48,0.00
2018,09,10,00,49,0.00
2018,09,10,00,50,0.00
2018,09,10,00,51,0.00
2018,09,10,00,52,0.00
2018,09,10,00,53,0.00
2018,09,10,00,54,0.00
2018,09,10,00,55,0.00
2018,09,10,00,56,0.00
2018,09,10,00,57,0.00
2018,09,10,00,58,0.00
2018,09,10,00,59,0.00
2018,09,10,01,00,0.00
2018,09,10,01,01,0.00
2018,09,10,01,02,0.00
2018,09,10,01,03,0.00
2018,09,10,01,04,0.00
2018,09,10,01,05,0.00
2018,09,10,01,06,0.00
2018,09,10,01,07,0.00
2018,09,10,01,08,0.00
2018,09,10,01,09,0.00
2018,09,10,01,10,0.00
2018,09,10,01,11,0.00
2018,09,10,01,12,0.00
2018,09,10,01,13,0.00
2018,09,10,01,14,0.00
2018,09,10,01,15,0.00
2018,09,10,01,16,0.00
2018,09,10,01,17,0.00
2018,09,10,01,18,0.00
2018,09,10,01,19,0.00
2018,09,10,01,20,0.00
2018,09,10,01,21,0.00
2018,09,10,01,22,0.00
2018,09,10,01,23,0.00
2018,09,10,01,24,0.00
2018,09,10,01,25,0.00
2018,09,10,01,26,0.00
2018,09,10,01,27,0.00
2018,09,10,01,28,0.00
2018,09,10,01,29,0.00
2018,09,10,01,30,0.00
2018,09,10,01,31,0.00
2018,09,10,01,32,0.00
2018,09,10,01,33,0.00
2018,09,10,01,34,0.00
2018,09,10,01,35,0.00
2018,09,10,01,36,0.00
2018,09,10,01,37,0.00
2018,09,10,01,38,0.00
2018,09,10,01,39,0.00
2018,09,10,01,40,0.00
2018,09,10,01,41,0.00
2018,09,10,01,42,0.00
2018,09,10,01,43,0.00
2018,09,10,01,44,0.00
2018,09,10,01,45,0.00
2018,09,10,01,46,0.00
2018,09,10,01,47,0.00
2018,09,10,01,48,0.00
2018,09,10,01,49,0.00
2018,09,10,01,50,0.00
2018,09,10,01,51,0.00
2018,09,10,01,52,0.00
2018,09,10,01,53,0.00
2018,09,10,01,54,0.00
2018,09,10,01,55,0.00
2018,09,10,01,56,0.00
2018,09,10,01,57,0.00
2018,09,10,01,58,0.00
2018,09,10,01,59,0.00
2018,09,10,02,00,0.00
2018,09,10,02,01,0.00
2018,09,10,02,02,0.00
2018,09,10,02,03,0.00
2018,09,10,02,04,0.00
2018,09,10,02,05,0.00
2018,09,10,02,06,0.00
2018,09,10,02,07,0.00
2018,09,10,02,08,0.00
2018,09,10,02,09,0.00
2018,09,10,02,10,0.00
2018,09,10,02,11,0.00
2018,09,10,02,12,0.00
2018,09,10,02,13,0.00
2018,09,10,02,14,0.00
2018,09,10,02,15,0.00
2018,09,10,02,16,0.00
2018,09,10,02,17,0.00
2018,09,10,02,18,0.00
2018,09,10,02,19,0.00
2018,09,10,02,20,0.00
2018,09,10,02,21,0.00
2018,09,10,02,22,0.00
2018,09,10,02,23,0.00
2018,09,10,02,24,0.00
2018,09,10,02,25,0.00
2018,09,10,02,26,0.00
2018,09,10,02,27,0.00
2018,09,10,02,28,0.00
2018,09,10,02,29,0.00
2018,09,10,02,30,0.00
2018,09,10,02,31,0.00
2018,09,10,02,32,0.00
2018,09,10,02,33,0.00
2018,09,10,02,34,0.00
2018,09,10,02,35,0.00
2018,09,10,02,36,0.00
2018,09,10,02,37,0.00
2018,09,10,02,38,0.00
2018,09,10,02,39,0.00
2018,09,10,02,40,0.00
2018,09,10,02,41,0.00
2018,09,10,02,42,0.00
2018,09,10,02,43,0.00
2018,09,10,02,44,0.00
2018,09,10,02,45,0.00
2018,09,10,02,46,0.00
2018,09,10,02,47,0.00
2018,09,10,02,48,0.00
2018,09,10,02,49,0.00
2018,09,10,02,50,0.00
2018,09,10,02,51,0.00
2018,09,10,02,52,0.00
2018,09,10,02,53,0.00
2018,09,10,02,54,0.00
2018,09,10,02,55,0.00
2018,09,10,02,56,0.00
2018,09,10,02,57,0.00
2018,09,10,02,58,0.00
2018,09,10,02,59,0.00
2018,09,10,03,00,0.00
2018,09,10,03,01,0.00
2018,09,10,03,02,0.00
2018,09,10,03,03,0.00
2018,09,10,03,04,0.00
2018,09,10,03,05,0.00
2018,09,10,03,06,0.00
2018,09,10,03,07,0.00
2018,09,10,03,08,0.00
2018,09,10,03,09,0.00
2018,09,10,03,10,0.00
2018,09,10,03,11,0.00
2018,09,10,03,12,0.00
2018,09,10,03,13,0.00
2018,09,10,03,14,0.00
2018,09,10,03,15,0.00
2018,09,10,03,16,0.00
2018,09,10,03,17,0.00
2018,09,10,03,18,0.00
2018,09,10,03,19,0.00
2018,09,10,03,20,0.00
2018,09,10,03,21,0.00
2018,09,10,03,22,0.00
2018,09,10,03,23,0.00
2018,09,10,03,24,0.00
2018,09,10,03,25,0.00
2018,09,10,03,26,0.00
2018,09,10,03,27,0.00
2018,09,10,03,28,0.00
2018,09,10,03,29,0.00
2018,09,10,03,30,0.00
2018,09,10,03,31,0.00
2018,09,10,03,32,0.00
2018,09,10,03,33,0.00
2018,09,10,03,34,0.00
2018,09,10,03,35,0.00
2018,09,10,03,36,0.00
2018,09,10,03,37,0.00
2018,09,10,03,38,0.00
2018,09,10,03,39,0.00
2018,09,10,03,40,0.00
2018,09,10,03,41,0.00
2018,09,10,03,42,0.00
2018,09,10,03,43,0.00
2018,09,10,03,44,0.00
2018,09,10,03,45,0.00
2018,09,10,03,46,0.00
2018,09,10,03,47,0.00
2018,09,10,03,48,0.00
2018,09,10,03,49,0.00
2018,09,10,03,50,0.00
2018,09,10,03,51,0.00
2018,09,10,03,52,0.00
2018,09,10,03,53,0.00
2018,09,10,03,54,0.00
2018,09,10,03,55,0.00
2018,09,10,03,56,0.00
2018,09,10,03,57,0.00
2018,09,10,03,58,0.00
2018,09,10,03,59,0.00
2018,09,10,04,00,0.00
2018,09,10,04,01,0.00
2018,09,10,04,02,0.00
2018,09,10,04,03,0.00
2018,09,10,04,04,0.00
2018,09,10,04,05,0.00
2018,09,10,04,06,0.00
2018,09,10,04,07,0.00
2018,09,10,04,08,0.00
2018,09,10,04,09,0.00
2018,09,10,04,10,0.00
2018,09,10,04,11,0.00
2018,09,10,04,12,0.00
2018,09,10,04,13,0.00
2018,09,10,04,14,0.00
2018,09,10,04,15,0.00
2018,09,10,04,16,0.00
2018,09,10,04,17,0.00
2018,09,10,04,18,0.00
2018,09,10,04,19,0.00
2018,09,10,04,20,0.00
2018,09,10,04,21,0.00
2018,09,10,04,22,0.00
2018,09,10,04,23,0.00
2018,09,10,04,24,0.00
2018,09,10,04,25,0.00
2018,09,10,04,26,0.00
2018,09,10,04,27,0.00
2018,09,10,04,28,0.00
2018,09,10,04,29,0.00
2018,09,10,04,30,0.00
2018,09,10,04,31,0.00
2018,09,10,04,32,0.00
2018,09,10,04,33,0.00
2018,09,10,04,34,0.00
2018,09,10,04,35,0.00
2018,09,10,04,36,0.00
2018,09,10,04,37,0.00
2018,09,10,04,38,0.00
2018,09,10,04,39,0.00
2018,09,10,04,40,0.00
2018,09,10,04,41,0.00
2018,09,10,04,42,0.00
2018,09,10,04,43,0.00
2018,09,10,04,44,0.00
2018,09,10,04,45,0.00
2018,09,10,04,46,0.00
2018,09,10,04,47,0.00
2018,09,10,04,48,0.00
2018,09,10,04,49,0.00
2018,09,10,04,50,0.00
2018,09,10,04,51,0.00
2018,09,10,04,52,0.00
2018,09,10,04,53,0.00
2018,09,10,04,54,0.00
2018,09,10,04,55,0.00
2018,09,10,04,56,0.00
2018,09,10,04,57,0.00
2018,09,10,04,58,0.00
2018,09,10,04,59,0.00
2018,09,10,05,00,0.00
2018,09,10,05,01,0.00
2018,09,10,05,02,0.00
2018,09,10,05,03,0.00
2018,09,10,05,04,0.00
2018,09,10,05,05,0.00
2018,09,10,05,06,0.00
2018,09,10,05,07,0.00
2018,09,10,05,08,0.00
2018,09,10,05,09,0.00
2018,09,10,05,10,0.00
2018,09,10,05,11,0.00
2018,09,10,05,12,0.00
2018,09,10,05,13,0.00
2018,09,10,05,14,0.00
2018,09,10,05,15,0.00
2018,09,10,05,16,0.00
2018,09,10,05,17,0.00
2018,09,10,05,18,0.00
2018,09,10,05,19,0.00
2018,09,10,05,20,0.00
2018,09,10,05,21,0.00
2018,09,10,05,22,0.00
2018,09,10,05,23,0.00
2018,09,10,05,24,0.00
2018,09,10,05,25,0.00
2018,09,10,05,26,0.00
2018,09,10,05,27,0.00
2018,09,10,05,28,0.00
2018,09,10,05,29,0.00
2018,09,10,05,30,0.00
2018,09,10,05,31,0.00
2018,09,10,05,32,0.00
2018,09,10,05,33,0.00
2018,09,10,05,34,0.00
2018,09,10,05,35,0.00
2018,09,10,05,36,0.00
2018,09,10,05,37,0.00
2018,09,10,05,38,0.00
2018,09,10,05,39,0.00
2018,09,10,05,40,0.00
2018,09,10,05,41,0.00
2018,09,10,05,42,0.00
2018,09,10,05,43,0.00
2018,09,10,05,44,0.00
2018,09,10,05,45,0.00
2018,09,10,05,46,0.00
2018,09,10,05,47,0.00
2018,09,10,05,48,0.00
2018,09,10,05,49,0.00
2018,09,10,05,50,0.00
2018,09,10,05,51,0.00
2018,09,10,05,52,0.00
2018,09,10,05,53,0.00
2018,09,10,05,54,0.00
2018,09,10,05,55,0.00
2018,09,10,05,56,0.00
2018,09,10,05,57,0.00
2018,09,10,05,58,0.00
2018,09,10,05,59,0.00
2018,09,10,06,00,0.00
2018,09,10,06,01,0.00
2018,09,10,06,02,0.00
2018,09,10,06,03,0.00
2018,09,10,06,04,0.00
2018,09,10,06,05,0.00
2018,09,10,06,06,0.00
2018,09,10,06,07,0.00
2018,09,10,06,08,0.00
2018,09,10,06,09,0.00
2018,09,10,06,10,0.00
2018,09,10,06,11,0.00
2018,09,10,06,12,0.00
2018,09,10,06,13,0.00
2018,09,10,06,14,0.00
2018,09,10,06,15,0.00
2018,09,10,06,16,0.00
2018,09,10,06,17,0.00
2018,09,10,06,18,0.00
2018,09,10,06,19,0.00
2018,09,10,06,20,0.00
2018,09,10,06,21,0.00
2018,09,10,06,22,0.00
2018,09,10,06,23,0.00
2018,09,10,06,24,0.00
2018,09,10,06,25,0.00
2018,09,10,06,26,0.00
2018,09,10,06,27,0.00
2018,09,10,06,28,0.00
2018,09,10,06,29,0.00
2018,09,10,06,30,0.00
2018,09,10,06,31,0.00
2018,09,10,06,32,0.00
2018,09,10,06,33,0.00
2018,09,10,06,34,0.00
2018,09,10,06,35,0.00
2018,09,10,06,36,0.00
2018,09,10,06,37,0.00
2018,09,10,06,38,0.00
2018,09,10,06,39,0.00
2018,09,10,06,40,0.00
2018,09,10,06,41,0.00
2018,09,10,06,42,0.00
2018,09,10,06,43,0.00
2018,09,10,06,44,0.00
2018,09,10,06,45,0.00
2018,09,10,06,46,0.00
2018,09,10,06,47,0.00
2018,09,10,06,48,1.00
2018,09,10,06,49,5.00
2018,09,10,06,50,5.00
2018,09,10,06,51,5.00
2018,09,10,06,52,5.00
2018,09,10,06,53,5.30
2018,09,10,06,54,7.00
2018,09,10,06,55,7.00
2018,09,10,06,56,7.40
2018,09,10,06,57,9.00
2018,09,10,06,58,9.00
2018,09,10,06,59,9.00
2018,09,10,07,00,9.40
2018,09,10,07,01,11.00
2018,09,10,07,02,11.20
2018,09,10,07,03,12.40
2018,09,10,07,04,14.00
2018,09,10,07,05,14.40
2018,09,10,07,06,16.40
2018,09,10,07,07,18.60
2018,09,10,07,08,21.60
2018,09,10,07,09,25.20
2018,09,10,07,10,25.80
2018,09,10,07,11,24.60
2018,09,10,07,12,22.70
2018,09,10,07,13,21.00
2018,09,10,07,14,21.00
2018,09,10,07,15,21.00
2018,09,10,07,16,21.00
2018,09,10,07,17,21.00
2018,09,10,07,18,21.00
2018,09,10,07,19,21.00
2018,09,10,07,20,21.00
2018,09,10,07,21,21.00
2018,09,10,07,22,21.40
2018,09,10,07,23,23.00
2018,09,10,07,24,23.00
2018,09,10,07,25,23.40
2018,09,10,07,26,25.00
2018,09,10,07,27,25.60
2018,09,10,07,28,28.80
2018,09,10,07,29,33.80
2018,09,10,07,30,38.00
2018,09,10,07,31,42.40
2018,09,10,07,32,45.80
2018,09,10,07,33,58.50
2018,09,10,07,34,88.00
2018,09,10,07,35,82.80
2018,09,10,07,36,60.80
2018,09,10,07,37,55.60
2018,09,10,07,38,54.40
2018,09,10,07,39,56.60
2018,09,10,07,40,60.60
2018,09,10,07,41,64.20
2018,09,10,07,42,70.40
2018,09,10,07,43,77.00
2018,09,10,07,44,81.50
2018,09,10,07,45,84.40
2018,09,10,07,46,86.00
2018,09,10,07,47,86.80
2018,09,10,07,48,90.60
2018,09,10,07,49,94.00
2018,09,10,07,50,100.20
2018,09,10,07,51,110.40
2018,09,10,07,52,116.40
2018,09,10,07,53,117.20
2018,09,10,07,54,114.00
2018,09,10,07,55,113.40
2018,09,10,07,56,110.60
2018,09,10,07,57,106.80
2018,09,10,07,58,98.40
2018,09,10,07,59,100.30
2018,09,10,08,00,103.00
2018,09,10,08,01,108.20
2018,09,10,08,02,113.60
2018,09,10,08,03,116.80
2018,09,10,08,04,120.20
2018,09,10,08,05,120.80
2018,09,10,08,06,120.00
2018,09,10,08,07,121.40
2018,09,10,08,08,127.20
2018,09,10,08,09,129.20
2018,09,10,08,10,134.60
2018,09,10,08,11,135.60
2018,09,10,08,12,129.00
2018,09,10,08,13,129.80
2018,09,10,08,14,149.00
2018,09,10,08,15,147.60
2018,09,10,08,16,135.10
2018,09,10,08,17,96.40
2018,09,10,08,18,89.60
2018,09,10,08,19,86.60
2018,09,10,08,20,81.60
2018,09,10,08,21,81.00
2018,09,10,08,22,68.20
2018,09,10,08,23,64.60
2018,09,10,08,24,65.20
2018,09,10,08,25,77.80
2018,09,10,08,26,84.40
2018,09,10,08,27,100.60
2018,09,10,08,28,112.90
2018,09,10,08,29,119.60
2018,09,10,08,30,118.40
2018,09,10,08,31,119.20
2018,09,10,08,32,115.40
2018,09,10,08,33,112.20
2018,09,10,08,34,110.40
2018,09,10,08,35,117.00
2018,09,10,08,36,122.10
2018,09,10,08,37,130.80
2018,09,10,08,38,144.20
2018,09,10,08,39,153.60
2018,09,10,08,40,156.40
2018,09,10,08,41,156.60
2018,09,10,08,42,148.00
2018,09,10,08,43,149.00
2018,09,10,08,44,163.60
2018,09,10,08,45,137.60
2018,09,10,08,46,120.00
2018,09,10,08,47,120.00
2018,09,10,08,48,120.60
2018,09,10,08,49,124.80
2018,09,10,08,50,135.20
2018,09,10,08,51,152.40
2018,09,10,08,52,175.00
2018,09,10,08,53,172.00
2018,09,10,08,54,176.60
2018,09,10,08,55,175.80
2018,09,10,08,56,162.50
2018,09,10,08,57,159.00
2018,09,10,08,58,165.80
2018,09,10,08,59,205.60
2018,09,10,09,00,190.20
2018,09,10,09,01,187.20
2018,09,10,09,02,188.80
2018,09,10,09,03,126.40
2018,09,10,09,04,116.00
2018,09,10,09,05,97.60
2018,09,10,09,06,86.60
2018,09,10,09,07,78.80
2018,09,10,09,08,68.40
2018,09,10,09,09,66.20
2018,09,10,09,10,79.00
2018,09,10,09,11,73.10
2018,09,10,09,12,133.60
2018,09,10,09,13,157.80
2018,09,10,09,14,149.00
2018,09,10,09,15,195.40
2018,09,10,09,16,382.20
2018,09,10,09,17,387.60
2018,09,10,09,18,390.80
2018,09,10,09,19,394.60
2018,09,10,09,20,397.80
2018,09,10,09,21,401.40
2018,09,10,09,22,403.60
2018,09,10,09,23,407.00
2018,09,10,09,24,411.80
2018,09,10,09,25,416.80
2018,09,10,09,26,426.80
2018,09,10,09,27,443.20
2018,09,10,09,28,464.00
2018,09,10,09,29,464.00
2018,09,10,09,30,427.70
2018,09,10,09,31,230.40
2018,09,10,09,32,216.00
2018,09,10,09,33,216.00
2018,09,10,09,34,210.40
2018,09,10,09,35,188.00
2018,09,10,09,36,225.60
2018,09,10,09,37,394.00
2018,09,10,09,38,465.00
2018,09,10,09,39,462.00
2018,09,10,09,40,467.00
2018,09,10,09,41,470.40
2018,09,10,09,42,468.60
2018,09,10,09,43,471.40
2018,09,10,09,44,473.60
2018,09,10,09,45,476.80
2018,09,10,09,46,481.00
2018,09,10,09,47,486.80
2018,09,10,09,48,496.40
2018,09,10,09,49,509.80
2018,09,10,09,50,522.70
2018,09,10,09,51,522.40
2018,09,10,09,52,554.20
2018,09,10,09,53,563.00
2018,09,10,09,54,563.00
2018,09,10,09,55,556.20
2018,09,10,09,56,526.60
2018,09,10,09,57,517.00
2018,09,10,09,58,515.60
2018,09,10,09,59,510.00
2018,09,10,10,00,507.20
2018,09,10,10,01,495.60
2018,09,10,10,02,505.20
2018,09,10,10,03,555.40
2018,09,10,10,04,586.80
2018,09,10,10,05,635.80
2018,09,10,10,06,675.00
2018,09,10,10,07,675.00
2018,09,10,10,08,585.00
2018,09,10,10,09,222.20
2018,09,10,10,10,210.60
2018,09,10,10,11,210.40
2018,09,10,10,12,215.40
2018,09,10,10,13,218.60
2018,09,10,10,14,247.60
2018,09,10,10,15,271.00
2018,09,10,10,16,248.20
2018,09,10,10,17,221.40
2018,09,10,10,18,231.20
2018,09,10,10,19,264.00
2018,09,10,10,20,283.00
2018,09,10,10,21,362.00
2018,09,10,10,22,370.00
2018,09,10,10,23,354.40
2018,09,10,10,24,348.00
2018,09,10,10,25,339.70
2018,09,10,10,26,383.20
2018,09,10,10,27,374.00
2018,09,10,10,28,293.60
2018,09,10,10,29,254.80
2018,09,10,10,30,231.20
2018,09,10,10,31,217.40
2018,09,10,10,32,205.70
2018,09,10,10,33,197.80
2018,09,10,10,34,193.40
2018,09,10,10,35,196.80
2018,09,10,10,36,206.00
2018,09,10,10,37,216.20
2018,09,10,10,38,226.80
2018,09,10,10,39,235.40
2018,09,10,10,40,240.00
2018,09,10,10,41,230.00
2018,09,10,10,42,199.60
2018,09,10,10,43,170.20
2018,09,10,10,44,156.00
2018,09,10,10,45,159.20
2018,09,10,10,46,154.00
2018,09,10,10,47,142.40
2018,09,10,10,48,125.20
2018,09,10,10,49,112.00
2018,09,10,10,50,102.60
2018,09,10,10,51,95.60
2018,09,10,10,52,90.20
2018,09,10,10,53,92.40
2018,09,10,10,54,99.80
2018,09,10,10,55,109.60
2018,09,10,10,56,121.40
2018,09,10,10,57,127.20
2018,09,10,10,58,127.80
2018,09,10,10,59,127.60
2018,09,10,11,00,132.80
2018,09,10,11,01,145.70
2018,09,10,11,02,156.00
2018,09,10,11,03,160.00
2018,09,10,11,04,157.00
2018,09,10,11,05,139.20
2018,09,10,11,06,139.00
2018,09,10,11,07,163.40
2018,09,10,11,08,151.80
2018,09,10,11,09,167.00
2018,09,10,11,10,174.40
2018,09,10,11,11,195.20
2018,09,10,11,12,160.00
2018,09,10,11,13,157.60
2018,09,10,11,14,151.80
2018,09,10,11,15,166.60
2018,09,10,11,16,166.40
2018,09,10,11,17,173.40
2018,09,10,11,18,182.60
2018,09,10,11,19,199.70
2018,09,10,11,20,222.80
2018,09,10,11,21,273.60
2018,09,10,11,22,333.20
2018,09,10,11,23,336.80
2018,09,10,11,24,387.80
2018,09,10,11,25,343.00
2018,09,10,11,26,314.80
2018,09,10,11,27,377.80
2018,09,10,11,28,302.40
2018,09,10,11,29,260.00
2018,09,10,11,30,318.00
2018,09,10,11,31,550.00
2018,09,10,11,32,550.00
2018,09,10,11,33,550.00
2018,09,10,11,34,550.80
2018,09,10,11,35,554.00
2018,09,10,11,36,554.00
2018,09,10,11,37,494.20
2018,09,10,11,38,253.60
2018,09,10,11,39,246.20
2018,09,10,11,40,239.40
2018,09,10,11,41,241.40
2018,09,10,11,42,244.40
2018,09,10,11,43,252.40
2018,09,10,11,44,266.20
2018,09,10,11,45,290.40
2018,09,10,11,46,330.20
2018,09,10,11,47,384.40
2018,09,10,11,48,426.60
2018,09,10,11,49,377.60
2018,09,10,11,50,361.80
2018,09,10,11,51,345.60
2018,09,10,11,52,307.20
2018,09,10,11,53,268.60
2018,09,10,11,54,254.20
2018,09,10,11,55,251.00
2018,09,10,11,56,249.40
2018,09,10,11,57,239.20
2018,09,10,11,58,232.00
2018,09,10,11,59,234.40
2018,09,10,12,00,245.10
2018,09,10,12,01,250.40
2018,09,10,12,02,246.60
2018,09,10,12,03,239.20
2018,09,10,12,04,231.60
2018,09,10,12,05,232.30
2018,09,10,12,06,244.40
2018,09,10,12,07,262.00
2018,09,10,12,08,280.80
2018,09,10,12,09,292.60
2018,09,10,12,10,294.40
2018,09,10,12,11,291.60
2018,09,10,12,12,290.80
2018,09,10,12,13,292.80
2018,09,10,12,14,286.20
2018,09,10,12,15,277.00
2018,09,10,12,16,268.00
2018,09,10,12,17,263.20
2018,09,10,12,18,260.40
2018,09,10,12,19,262.60
2018,09,10,12,20,266.40
2018,09,10,12,21,273.20
2018,09,10,12,22,280.40
2018,09,10,12,23,292.20
2018,09,10,12,24,303.40
2018,09,10,12,25,316.80
2018,09,10,12,26,333.80
2018,09,10,12,27,340.40
2018,09,10,12,28,335.40
2018,09,10,12,29,325.80
2018,09,10,12,30,330.00
2018,09,10,12,31,331.60
2018,09,10,12,32,313.40
2018,09,10,12,33,275.20
2018,09,10,12,34,259.60
2018,09,10,12,35,259.40
2018,09,10,12,36,269.40
2018,09,10,12,37,295.60
2018,09,10,12,38,330.00
2018,09,10,12,39,330.00
2018,09,10,12,40,344.90
2018,09,10,12,41,429.00
2018,09,10,12,42,492.20
2018,09,10,12,43,745.00
2018,09,10,12,44,760.60
2018,09,10,12,45,825.00
2018,09,10,12,46,838.10
2018,09,10,12,47,867.40
2018,09,10,12,48,881.00
2018,09,10,12,49,860.20
2018,09,10,12,50,777.00
2018,09,10,12,51,777.00
2018,09,10,12,52,777.00
2018,09,10,12,53,777.00
2018,09,10,12,54,777.00
2018,09,10,12,55,777.00
2018,09,10,12,56,704.20
2018,09,10,12,57,424.00
2018,09,10,12,58,456.60
2018,09,10,12,59,428.60
2018,09,10,13,00,495.80
2018,09,10,13,01,483.00
2018,09,10,13,02,587.40
2018,09,10,13,03,1005.00
2018,09,10,13,04,1005.00
2018,09,10,13,05,1005.00
2018,09,10,13,06,993.20
2018,09,10,13,07,946.00
2018,09,10,13,08,930.40
2018,09,10,13,09,862.80
2018,09,10,13,10,839.80
2018,09,10,13,11,831.00
2018,09,10,13,12,831.00
2018,09,10,13,13,831.00
2018,09,10,13,14,823.80
2018,09,10,13,15,796.60
2018,09,10,13,16,803.00
2018,09,10,13,17,803.00
2018,09,10,13,18,803.00
2018,09,10,13,19,707.80
2018,09,10,13,20,327.00
2018,09,10,13,21,327.00
2018,09,10,13,22,435.60
2018,09,10,13,23,870.00
2018,09,10,13,24,846.20
2018,09,10,13,25,760.40
2018,09,10,13,26,800.80
2018,09,10,13,27,815.90
2018,09,10,13,28,837.00
2018,09,10,13,29,748.00
2018,09,10,13,30,392.00
2018,09,10,13,31,392.00
2018,09,10,13,32,392.00
2018,09,10,13,33,374.00
2018,09,10,13,34,298.60
2018,09,10,13,35,284.20
2018,09,10,13,36,284.60
2018,09,10,13,37,308.40
2018,09,10,13,38,346.00
2018,09,10,13,39,388.20
2018,09,10,13,40,538.00
2018,09,10,13,41,462.00
2018,09,10,13,42,462.00
2018,09,10,13,43,462.00
2018,09,10,13,44,462.00
2018,09,10,13,45,535.80
2018,09,10,13,46,832.20
2018,09,10,13,47,837.00
2018,09,10,13,48,837.00
2018,09,10,13,49,729.40
2018,09,10,13,50,305.60
2018,09,10,13,51,332.00
2018,09,10,13,52,332.00
2018,09,10,13,53,332.00
2018,09,10,13,54,421.60
2018,09,10,13,55,780.00
2018,09,10,13,56,780.00
2018,09,10,13,57,708.80
2018,09,10,13,58,437.20
2018,09,10,13,59,493.60
2018,09,10,14,00,519.60
2018,09,10,14,01,549.80
2018,09,10,14,02,471.40
2018,09,10,14,03,434.80
2018,09,10,14,04,506.00
2018,09,10,14,05,506.00
2018,09,10,14,06,506.00
2018,09,10,14,07,474.80
2018,09,10,14,08,342.20
2018,09,10,14,09,311.40
2018,09,10,14,10,309.20
2018,09,10,14,11,294.00
2018,09,10,14,12,306.20
2018,09,10,14,13,348.40
2018,09,10,14,14,333.80
2018,09,10,14,15,398.60
2018,09,10,14,16,469.00
2018,09,10,14,17,469.00
2018,09,10,14,18,504.20
2018,09,10,14,19,635.60
2018,09,10,14,20,594.80
2018,09,10,14,21,582.00
2018,09,10,14,22,582.00
2018,09,10,14,23,578.40
2018,09,10,14,24,558.80
2018,09,10,14,25,538.00
2018,09,10,14,26,538.00
2018,09,10,14,27,549.20
2018,09,10,14,28,594.00
2018,09,10,14,29,556.80
2018,09,10,14,30,408.00
2018,09,10,14,31,408.00
2018,09,10,14,32,373.60
2018,09,10,14,33,234.20
2018,09,10,14,34,225.20
2018,09,10,14,35,217.20
2018,09,10,14,36,213.40
2018,09,10,14,37,211.60
2018,09,10,14,38,215.20
2018,09,10,14,39,220.60
2018,09,10,14,40,222.00
2018,09,10,14,41,228.20
2018,09,10,14,42,280.20
2018,09,10,14,43,317.40
2018,09,10,14,44,289.40
2018,09,10,14,45,302.20
2018,09,10,14,46,311.00
2018,09,10,14,47,295.40
2018,09,10,14,48,300.60
2018,09,10,14,49,315.00
2018,09,10,14,50,315.00
2018,09,10,14,51,334.60
2018,09,10,14,52,397.60
2018,09,10,14,53,342.00
2018,09,10,14,54,383.20
2018,09,10,14,55,458.00
2018,09,10,14,56,490.00
2018,09,10,14,57,458.00
2018,09,10,14,58,330.00
2018,09,10,14,59,359.60
2018,09,10,15,00,350.00
2018,09,10,15,01,361.60
2018,09,10,15,02,414.20
2018,09,10,15,03,439.00
2018,09,10,15,04,439.00
2018,09,10,15,05,472.80
2018,09,10,15,06,595.40
2018,09,10,15,07,561.80
2018,09,10,15,08,628.00
2018,09,10,15,09,619.40
2018,09,10,15,10,614.40
2018,09,10,15,11,662.00
2018,09,10,15,12,631.40
2018,09,10,15,13,611.60
2018,09,10,15,14,635.60
2018,09,10,15,15,622.00
2018,09,10,15,16,606.00
2018,09,10,15,17,583.20
2018,09,10,15,18,508.60
2018,09,10,15,19,562.60
2018,09,10,15,20,529.20
2018,09,10,15,21,593.40
2018,09,10,15,22,599.40
2018,09,10,15,23,633.00
2018,09,10,15,24,591.80
2018,09,10,15,25,427.00
2018,09,10,15,26,427.00
2018,09,10,15,27,375.80
2018,09,10,15,28,172.40
2018,09,10,15,29,178.00
2018,09,10,15,30,178.00
2018,09,10,15,31,178.00
2018,09,10,15,32,178.00
2018,09,10,15,33,280.20
2018,09,10,15,34,688.60
2018,09,10,15,35,687.00
2018,09,10,15,36,627.20
2018,09,10,15,37,388.00
2018,09,10,15,38,388.00
2018,09,10,15,39,388.00
2018,09,10,15,40,388.00
2018,09,10,15,41,444.40
2018,09,10,15,42,672.40
2018,09,10,15,43,682.00
2018,09,10,15,44,682.00
2018,09,10,15,45,663.80
2018,09,10,15,46,601.40
2018,09,10,15,47,643.80
2018,09,10,15,48,649.40
2018,09,10,15,49,659.00
2018,09,10,15,50,659.00
2018,09,10,15,51,659.00
2018,09,10,15,52,659.00
2018,09,10,15,53,659.00
2018,09,10,15,54,659.00
2018,09,10,15,55,564.80
2018,09,10,15,56,188.80
2018,09,10,15,57,192.00
2018,09,10,15,58,273.20
2018,09,10,15,59,598.00
2018,09,10,16,00,598.00
2018,09,10,16,01,594.00
2018,09,10,16,02,569.20
2018,09,10,16,03,543.20
2018,09,10,16,04,584.20
2018,09,10,16,05,600.40
2018,09,10,16,06,594.00
2018,09,10,16,07,573.80
2018,09,10,16,08,553.60
2018,09,10,16,09,538.20
2018,09,10,16,10,530.00
2018,09,10,16,11,528.00
2018,09,10,16,12,537.00
2018,09,10,16,13,543.80
2018,09,10,16,14,554.40
2018,09,10,16,15,550.60
2018,09,10,16,16,545.60
2018,09,10,16,17,542.20
2018,09,10,16,18,516.50
2018,09,10,16,19,501.60
2018,09,10,16,20,496.00
2018,09,10,16,21,477.40
2018,09,10,16,22,403.00
2018,09,10,16,23,403.00
2018,09,10,16,24,346.00
2018,09,10,16,25,120.00
2018,09,10,16,26,136.60
2018,09,10,16,27,183.60
2018,09,10,16,28,225.20
2018,09,10,16,29,184.60
2018,09,10,16,30,168.40
2018,09,10,16,31,208.20
2018,09,10,16,32,289.80
2018,09,10,16,33,325.00
2018,09,10,16,34,289.60
2018,09,10,16,35,151.00
2018,09,10,16,36,162.40
2018,09,10,16,37,147.20
2018,09,10,16,38,153.40
2018,09,10,16,39,127.20
2018,09,10,16,40,136.80
2018,09,10,16,41,175.20
2018,09,10,16,42,180.00
2018,09,10,16,43,144.80
2018,09,10,16,44,123.40
2018,09,10,16,45,102.20
2018,09,10,16,46,90.40
2018,09,10,16,47,90.40
2018,09,10,16,48,101.00
2018,09,10,16,49,107.60
2018,09,10,16,50,119.80
2018,09,10,16,51,128.60
2018,09,10,16,52,135.00
2018,09,10,16,53,139.60
2018,09,10,16,54,171.00
2018,09,10,16,55,218.20
2018,09,10,16,56,192.60
2018,09,10,16,57,167.00
2018,09,10,16,58,164.80
2018,09,10,16,59,156.80
2018,09,10,17,00,154.80
2018,09,10,17,01,131.40
2018,09,10,17,02,121.40
2018,09,10,17,03,123.60
2018,09,10,17,04,127.60
2018,09,10,17,05,130.60
2018,09,10,17,06,134.20
2018,09,10,17,07,135.80
2018,09,10,17,08,137.60
2018,09,10,17,09,128.80
2018,09,10,17,10,115.40
2018,09,10,17,11,111.20
2018,09,10,17,12,101.80
2018,09,10,17,13,91.20
2018,09,10,17,14,83.00